Flight Track Log - Related Links

Times and Time Zones

All times are in EDT time to prevent confusion due to time zone crossing. See the ASQ5025 flight status page for this flight to view local times or setup timezone preferences in your user account.

Time Position Orientation Groundspeed Altitude Reporting Facility
EDT Latitude Longitude Course Direction KTS MPH feet Rate Location/Type
Fri 11:12:28 AM 44.4958 -73.2694 201° Southwest 231 266 7,000  Level Boston Center
Fri 11:13:28 AM 44.4311 -73.3036 201° Southwest 223 257 9,900 2,350 Climbing Boston Center
Fri 11:14:28 AM 44.3517 -73.3286 193° South 267 307 11,700 2,000 Climbing Boston Center
Fri 11:15:28 AM 44.2619 -73.3561 192° South 314 361 13,900 2,000 Climbing Boston Center
Fri 11:16:40 AM 44.1553 -73.3864 192° South 358 412 16,100 1,818 Climbing Boston Center
Fri 11:17:40 AM 44.0319 -73.4247 193° South 381 438 17,900 1,900 Climbing Boston Center
Fri 11:18:40 AM 43.9233 -73.4575 192° South 391 450 19,900 1,950 Climbing Boston Center
Fri 11:19:40 AM 43.8128 -73.4903 192° South 402 463 21,800 1,050 Climbing Boston Center
Fri 11:20:40 AM 43.6978 -73.5283 193° South 415 478 22,000 100 Climbing Boston Center
Fri 11:21:40 AM 43.5850 -73.5550 190° South 435 501 22,000  Level Boston Center
Fri 11:22:40 AM 43.4617 -73.5956 193° South 455 524 22,000  Level Boston Center
Fri 11:23:40 AM 43.3342 -73.6303 191° South 460 529 22,000  Level Boston Center
Fri 11:24:40 AM 43.2108 -73.6708 193° South 460 529 22,000  Level Boston Center
Fri 11:25:40 AM 43.0706 -73.7133 192° South 465 535 22,000  Level Boston Center
Fri 11:26:40 AM 42.9431 -73.7475 191° South 465 535 22,000 -350 Level Boston Center
Fri 11:27:40 AM 42.8197 -73.7847 192° South 465 535 21,300 -700 Descending Boston Center
Fri 11:28:40 AM 42.6944 -73.7933 183° South 460 529 20,600 -750 Descending Boston Center
Fri 11:29:40 AM 42.5719 -73.7708 172° South 449 517 19,800 -750 Descending Boston Center
Fri 11:30:40 AM 42.4492 -73.7483 172° South 454 522 19,100 -700 Descending Boston Center
Fri 11:31:40 AM 42.3286 -73.7150 168° South 449 517 18,400 -550 Descending Boston Center
Fri 11:32:40 AM 42.2122 -73.6958 173° South 444 511 18,000 -200 Descending Boston Center
Fri 11:33:40 AM 42.0953 -73.7158 187° South 429 494 18,000  Level Boston Center
Fri 11:34:52 AM 41.9822 -73.7472 192° South 424 488 18,000 -773 Level Boston Center
Fri 11:35:52 AM 41.8589 -73.7753 190° South 418 481 16,300 -2,000 Descending Boston Center
Fri 11:36:52 AM 41.7378 -73.8061 191° South 411 473 14,000 -2,150 Descending Boston Center
Fri 11:37:52 AM 41.6458 -73.8292 191° South 396 456 12,000 -1,904 Descending Boston Center
Fri 11:38:36 AM 41.5667 -73.8500 191° South 331 381 10,700 -1,347 Descending New York TRACON
Fri 11:39:30 AM 41.5000 -73.8667 191° South 291 335 9,800 -850 Descending New York TRACON
Fri 11:40:36 AM 41.4167 -73.8500 171° South 291 335 9,000 -381 Descending New York TRACON
Fri 11:41:36 AM 41.3500 -73.8000 151° Southeast 288 331 9,000 -350 Level New York TRACON
Fri 11:42:36 AM 41.2833 -73.7333 143° Southeast 284 327 8,300 -850 Descending New York TRACON
Fri 11:43:36 AM 41.2167 -73.6833 151° Southeast 269 310 7,300 -1,000 Descending New York TRACON
Fri 11:44:30 AM 41.1667 -73.6333 143° Southeast 276 318 6,400 -1,000 Descending New York TRACON
Fri 11:45:30 AM 41.1000 -73.6000 159° South 267 307 5,400 -1,000 Descending New York TRACON
Fri 11:46:30 AM 41.0167 -73.5833 171° South 265 305 4,400 -700 Descending New York TRACON
Fri 11:47:30 AM 40.9500 -73.6000 191° South 259 298 4,000 -211 Descending New York TRACON
Fri 11:48:24 AM 40.9000 -73.6167 194° South 254 292 4,000  Level New York TRACON
Fri 11:49:24 AM 40.8333 -73.6500 201° Southwest 251 289 4,000  Level New York TRACON
Fri 11:50:24 AM 40.8000 -73.7333 242° Southwest 249 287 4,000  Level New York TRACON
Fri 11:51:24 AM 40.7833 -73.8167 255° West 227 261 4,000  Level New York TRACON
Fri 11:52:24 AM 40.7833 -73.8833 270° West 181 208 4,000  Level New York TRACON
Fri 11:53:24 AM 40.7667 -73.9500 252° West 177 204 4,000  Level New York TRACON
Fri 11:54:24 AM 40.7500 -74.0000 246° West 186 214 4,000 -500 Level New York TRACON
Fri 11:55:24 AM 40.7000 -74.0167 194° South 205 236 3,000 -750 Descending New York TRACON
Fri 11:56:24 AM 40.6833 -73.9667 114° Southeast 199 229 2,500 -450 Descending New York TRACON
Fri 11:57:24 AM 40.7167 -73.9167 49° Northeast 170 196 2,100 -700 Descending New York TRACON
Fri 11:58:24 AM 40.7333 -73.8667 66° East 150 173 1,100 -850 Descending New York TRACON
Fri 11:59:24 AM 40.7667 -73.8333 37° Northeast 138 159 400 -700 Descending New York TRACON

Login

Don't have an account? Register now (free) for customized features, flight alerts, and more!